Homestead AFB, FL

6:50 PM EDT on March 23, 2017 (GMT -0400)
Dade County-Homestead Regional

Weather History for KHST - July, 2013

Change the Weather History Date:

Friday, July 19, 2013

  Actual Average Record
Temperature  
Mean Temperature 80 °F -  
Max Temperature 86 °F 89 °F 95 °F (1983)
Min Temperature 75 °F 72 °F 67 °F (1943)
Cooling Degree Days 16    
Growing Degree Days 30 (Base 50)    
Moisture  
Dew Point 69 °F    
Average Humidity 68    
Maximum Humidity 76    
Minimum Humidity 57    
Precipitation  
Precipitation 0.03 in - - ()
Sea Level Pressure  
Sea Level Pressure 30.11 in    
Wind  
Wind Speed 7 mph (ESE)    
Max Wind Speed 15 mph    
Max Gust Speed 22 mph    
Visibility 10 miles    
Events Rain , Thunderstorm    
Averages and records for this station are not official NWS values.
T = Trace of Precipitation, MM = Missing Value Source: NWS Daily Summary

Daily Weather History Graph

Daily Weather History Graph

Search for Another Location

Airport or City:

Trip Planner

Search our weather history database for the weather conditions in past years. The results will help you decide how hot, cold, wet, or windy it might be!

Date:

Astronomy

Jul. 19, 2013 Rise Set
Actual Time 6:42 AM EDT 8:13 PM EDT
Civil Twilight 6:16 AM EDT 8:38 PM EDT
Nautical Twilight 5:46 AM EDT 9:08 PM EDT
Astronomical Twilight 5:15 AM EDT 9:40 PM EDT
Moon 5:14 PM EDT (7/19) 3:20 AM EDT (7/19)
Length of Visible Light 14h 21m
Length of Day
13h 31m
Waxing Gibbous, 86% of the Moon is Illuminated
Jul 19
Waxing Gibbous
Jul 22
Full
Jul 29
Last Quarter
Aug 6
New
Aug 14
First Quarter

Hourly Weather History & Observations

Time (EDT) Temp. Heat Index Dew Point Humidity Pressure Visibility Wind Dir Wind Speed Gust Speed Precip Events Conditions
12:58 AM 77.5 °F - 67.6 °F 71% 30.10 in 10.0 mi East 5.8 mph - N/A   Clear
1:58 AM 78.1 °F - 67.5 °F 70% 30.10 in 10.0 mi ENE 4.6 mph - N/A   Partly Cloudy
2:58 AM 78.3 °F - 70.2 °F 76% 30.10 in 10.0 mi East 4.6 mph - N/A   Clear
3:58 AM 77.9 °F - 69.4 °F 75% 30.10 in 10.0 mi East 3.5 mph - N/A   Partly Cloudy
4:58 AM 77.4 °F - 68.5 °F 74% 30.09 in 10.0 mi East 3.5 mph - N/A   Clear
5:58 AM 77.4 °F - 67.8 °F 72% 30.10 in 10.0 mi ESE 3.5 mph - N/A   Clear
6:58 AM 78.3 °F - 65.8 °F 65% 30.10 in 10.0 mi ESE 4.6 mph - N/A   Clear
7:58 AM 79.9 °F - 64.8 °F 60% 30.11 in 10.0 mi ESE 5.8 mph - N/A   Clear
8:58 AM 81.0 °F 83.4 °F 67.3 °F 63% 30.12 in 10.0 mi East 6.9 mph - N/A   Clear
9:58 AM 83.5 °F 87.4 °F 69.6 °F 63% 30.13 in 10.0 mi East 11.5 mph - N/A   Clear
10:58 AM 84.6 °F 89.1 °F 70.2 °F 62% 30.15 in 10.0 mi ESE 11.5 mph 19.6 mph N/A   Partly Cloudy
11:58 AM 84.7 °F 90.0 °F 71.4 °F 64% 30.15 in 10.0 mi ESE 11.5 mph - N/A   Partly Cloudy
12:58 PM 86.0 °F 91.8 °F 71.4 °F 62% 30.13 in 10.0 mi East 13.8 mph - N/A   Mostly Cloudy
1:58 PM 86.7 °F 93.3 °F 72.3 °F 62% 30.11 in 10.0 mi East 12.7 mph 20.7 mph N/A   Mostly Cloudy
2:58 PM 85.1 °F 91.5 °F 72.5 °F 66% 30.10 in 10.0 mi ESE 15.0 mph 21.9 mph N/A   Partly Cloudy
3:58 PM 84.2 °F 89.9 °F 72.3 °F 67% 30.09 in 10.0 mi ESE 10.4 mph - N/A   Partly Cloudy
4:58 PM 83.7 °F 89.2 °F 72.1 °F 68% 30.08 in 10.0 mi East 11.5 mph - N/A   Clear
5:58 PM 85.1 °F 91.8 °F 72.9 °F 67% 30.07 in 10.0 mi ESE 9.2 mph - N/A   Clear
6:58 PM 84.4 °F 90.6 °F 72.9 °F 68% 30.06 in 10.0 mi East 10.4 mph - N/A   Partly Cloudy
7:58 PM 82.2 °F 88.0 °F 73.4 °F 75% 30.07 in 10.0 mi ENE 5.8 mph - N/A   Clear
8:58 PM 81.0 °F 85.6 °F 72.9 °F 76% 30.10 in 10.0 mi ENE 4.6 mph - N/A   Clear
9:57 PM 80.6 °F 83.9 °F 69.8 °F 70% 30.11 in 10.0 mi ENE 4.6 mph - N/A Thunderstorm Thunderstorm
9:58 PM 80.8 °F 84.2 °F 70.3 °F 70% 30.12 in 10.0 mi ENE 4.6 mph - N/A Thunderstorm Thunderstorm
10:16 PM 80.6 °F 82.7 °F 66.2 °F 61% 30.12 in 9.0 mi South 10.4 mph - N/A Rain , Thunderstorm Light Thunderstorms and Rain
10:21 PM 78.8 °F - 62.6 °F 57% 30.12 in 7.0 mi South 5.8 mph - N/A Rain , Thunderstorm Light Thunderstorms and Rain
10:26 PM 77.0 °F - 62.6 °F 61% 30.13 in 7.0 mi SSW 3.5 mph - N/A Rain , Thunderstorm Light Thunderstorms and Rain
10:31 PM 75.2 °F - 62.6 °F 65% 30.13 in 10.0 mi SSW 4.6 mph - N/A Thunderstorm Thunderstorm
10:49 PM 75.2 °F - 66.2 °F 73% 30.12 in 10.0 mi East 8.1 mph - N/A Thunderstorm Partly Cloudy
10:58 PM 77.4 °F - 68.4 °F 74% 30.13 in 10.0 mi East 5.8 mph - 0.03 in   Clear
11:58 PM 79.5 °F - 69.4 °F 71% 30.12 in 10.0 mi ESE 2.3 mph - N/A   Clear